| time (UTC) | temp F | wind direction | speed knots | gust knots | rain 1hr in | rain 24hr in | rain mn in | humidity % | barometer mb |
| 20260508043055 | 43 | 141 | 3.5 | 0.0 | 0.00 | 0.00 | 0.00 | 93 | 1011.5 |
| 20260508041532 | 43 | 155 | 4.3 | 0.0 | 0.00 | 0.00 | 0.00 | 92 | 1011.5 |
| 20260508040103 | 43 | 163 | 3.5 | 0.0 | 0.00 | 0.00 | 0.00 | 92 | 1011.5 |
| 20260508034624 | 43 | 160 | 2.6 | 0.0 | 0.00 | 0.00 | 0.00 | 92 | 1011.6 |
| 20260508033034 | 42 | 155 | 2.6 | 0.0 | 0.00 | 0.00 | 0.00 | 92 | 1011.5 |
| 20260508031522 | 42 | 147 | 4.3 | 0.0 | 0.00 | 0.00 | 0.00 | 92 | 1011.5 |
| 20260508030027 | 42 | 148 | 2.6 | 0.0 | 0.00 | 0.00 | 0.00 | 91 | 1011.4 |
| 20260508024532 | 42 | 148 | 2.6 | 0.0 | 0.00 | 0.00 | 0.00 | 91 | 1011.5 |
| 20260508023046 | 42 | 139 | 3.5 | 0.0 | 0.00 | 0.00 | 0.00 | 91 | 1011.3 |
| 20260508021622 | 42 | 139 | 3.5 | 0.0 | 0.00 | 0.00 | 0.00 | 91 | 1011.3 |
| 20260508020033 | 42 | 139 | 3.5 | 0.0 | 0.00 | 0.00 | 0.00 | 90 | 1011.3 |
| 20260508014547 | 43 | 142 | 3.5 | 0.0 | 0.00 | 0.00 | 0.00 | 91 | 1011.2 |
| 20260508013143 | 43 | 138 | 3.5 | 0.0 | 0.00 | 0.00 | 0.00 | 90 | 1011.1 |
| 20260508011511 | 42 | 141 | 3.5 | 0.0 | 0.00 | 0.00 | 0.00 | 90 | 1011.2 |
| 20260508010057 | 43 | 142 | 3.5 | 0.0 | 0.00 | 0.00 | 0.00 | 89 | 1011.4 |
| 20260508004528 | 43 | 136 | 3.5 | 0.0 | 0.00 | 0.00 | 0.00 | 89 | 1011.4 |
| 20260508003028 | 43 | 136 | 2.6 | 0.0 | 0.00 | 0.00 | 0.00 | 88 | 1011.5 |
| 20260508001553 | 44 | 140 | 2.6 | 0.0 | 0.00 | 0.00 | 0.00 | 87 | 1011.6 |
| 20260508000043 | 45 | 137 | 2.6 | 0.0 | 0.00 | 0.00 | 0.00 | 86 | 1011.6 |
| 20260507234628 | 45 | 139 | 4.3 | 0.0 | 0.00 | 0.00 | 0.00 | 86 | 1011.6 |
| 20260507233148 | 46 | 143 | 5.2 | 0.0 | 0.00 | 0.00 | 0.00 | 85 | 1011.6 |
| 20260507231550 | 46 | 155 | 5.2 | 0.0 | 0.00 | 0.00 | 0.00 | 85 | 1011.6 |
| 20260507230145 | 46 | 143 | 6.1 | 0.0 | 0.00 | 0.00 | 0.00 | 85 | 1011.8 |
| 20260507224510 | 46 | 148 | 5.2 | 0.0 | 0.00 | 0.00 | 0.01 | 84 | 1012.0 |
| 20260507223211 | 47 | 143 | 5.2 | 0.0 | 0.00 | 0.00 | 0.01 | 83 | 1011.9 |
| 20260507221632 | 47 | 168 | 5.2 | 0.0 | 0.00 | 0.00 | 0.01 | 82 | 1012.0 |
| 20260507220141 | 48 | 157 | 7.0 | 0.0 | 0.00 | 0.00 | 0.01 | 81 | 1011.6 |
| 20260507214517 | 48 | 148 | 7.0 | 0.0 | 0.00 | 0.00 | 0.01 | 80 | 1011.6 |
| 20260507213046 | 48 | 153 | 5.2 | 0.0 | 0.00 | 0.00 | 0.01 | 80 | 1011.7 |
| 20260507211639 | 48 | 156 | 5.2 | 0.0 | 0.00 | 0.00 | 0.01 | 79 | 1011.6 |
| 20260507210006 | 49 | 148 | 5.2 | 0.0 | 0.00 | 0.00 | 0.01 | 78 | 1011.5 |
| 20260507204650 | 49 | 147 | 5.2 | 0.0 | 0.00 | 0.00 | 0.01 | 78 | 1011.5 |
| 20260507203008 | 49 | 135 | 5.2 | 0.0 | 0.00 | 0.00 | 0.01 | 79 | 1011.3 |
| 20260507201552 | 50 | 139 | 5.2 | 0.0 | 0.00 | 0.00 | 0.01 | 78 | 1011.5 |
| 20260507200054 | 51 | 144 | 6.1 | 0.0 | 0.00 | 0.00 | 0.01 | 76 | 1011.3 |
| 20260507194559 | 51 | 124 | 6.1 | 0.0 | 0.00 | 0.00 | 0.01 | 75 | 1011.0 |
| 20260507193134 | 52 | 131 | 6.1 | 0.0 | 0.00 | 0.00 | 0.01 | 73 | 1011.0 |
| 20260507191638 | 53 | 105 | 6.1 | 0.0 | 0.00 | 0.00 | 0.01 | 71 | 1010.8 |
| 20260507190127 | 54 | 122 | 6.1 | 0.0 | 0.00 | 0.00 | 0.01 | 69 | 1010.9 |
| 20260507184625 | 54 | 133 | 6.1 | 0.0 | 0.00 | 0.00 | 0.01 | 66 | 1010.8 |
| 20260507183139 | 55 | 131 | 7.8 | 0.0 | 0.00 | 0.00 | 0.01 | 64 | 1010.6 |
| 20260507181509 | 56 | 140 | 7.0 | 0.0 | 0.00 | 0.00 | 0.01 | 62 | 1010.6 |
| 20260507180103 | 57 | 141 | 8.7 | 0.0 | 0.00 | 0.00 | 0.01 | 60 | 1010.7 |
| 20260507174556 | 57 | 152 | 7.0 | 0.0 | 0.00 | 0.00 | 0.01 | 60 | 1010.8 |
| 20260507173015 | 57 | 139 | 7.0 | 0.0 | 0.00 | 0.00 | 0.01 | 61 | 1010.6 |
| 20260507171529 | 57 | 124 | 7.0 | 0.0 | 0.00 | 0.00 | 0.01 | 59 | 1010.8 |
| 20260507170051 | 57 | 125 | 7.0 | 0.0 | 0.00 | 0.00 | 0.01 | 59 | 1010.8 |
| 20260507164549 | 58 | 143 | 7.0 | 0.0 | 0.00 | 0.00 | 0.01 | 59 | 1010.8 |
| 20260507163011 | 58 | 159 | 7.0 | 0.0 | 0.00 | 0.00 | 0.01 | 57 | 1010.9 |
| 20260507161553 | 58 | 138 | 7.8 | 0.0 | 0.00 | 0.00 | 0.01 | 58 | 1011.0 |
| 20260507160049 | 58 | 138 | 7.0 | 0.0 | 0.00 | 0.00 | 0.01 | 60 | 1011.0 |
| 20260507154557 | 58 | 155 | 7.8 | 0.0 | 0.00 | 0.00 | 0.01 | 56 | 1011.0 |
| 20260507153128 | 59 | 160 | 6.1 | 0.0 | 0.00 | 0.00 | 0.01 | 55 | 1011.1 |
| 20260507151630 | 59 | 165 | 6.1 | 0.0 | 0.00 | 0.00 | 0.01 | 53 | 1011.1 |
| 20260507150134 | 59 | 146 | 7.0 | 0.0 | 0.00 | 0.00 | 0.01 | 55 | 1011.1 |
| 20260507144529 | 59 | 150 | 5.2 | 0.0 | 0.00 | 0.00 | 0.01 | 56 | 1011.1 |
| 20260507143133 | 61 | 162 | 7.0 | 0.0 | 0.00 | 0.00 | 0.01 | 48 | 1011.2 |
| 20260507141527 | 61 | 152 | 4.3 | 0.0 | 0.00 | 0.00 | 0.01 | 46 | 1011.2 |
| 20260507140126 | 59 | 137 | 7.0 | 0.0 | 0.00 | 0.00 | 0.01 | 57 | 1011.4 |
| 20260507134622 | 58 | 174 | 7.0 | 0.0 | 0.00 | 0.00 | 0.01 | 56 | 1011.5 |
| 20260507133130 | 58 | 147 | 6.1 | 0.0 | 0.00 | 0.00 | 0.01 | 57 | 1011.5 |
| 20260507131528 | 59 | 140 | 5.2 | 0.0 | 0.00 | 0.00 | 0.01 | 55 | 1011.5 |
| 20260507130058 | 60 | 190 | 5.2 | 0.0 | 0.00 | 0.00 | 0.01 | 53 | 1011.5 |
| 20260507124608 | 60 | 106 | 2.6 | 0.0 | 0.00 | 0.00 | 0.01 | 56 | 1011.5 |
| 20260507123020 | 62 | 128 | 4.3 | 0.0 | 0.00 | 0.00 | 0.01 | 54 | 1011.7 |
| 20260507121539 | 60 | 79 | 4.3 | 0.0 | 0.00 | 0.00 | 0.01 | 56 | 1011.7 |
| 20260507120033 | 62 | 158 | 2.6 | 0.0 | 0.00 | 0.00 | 0.01 | 48 | 1012.0 |
| 20260507114522 | 63 | 140 | 4.3 | 0.0 | 0.00 | 0.00 | 0.01 | 55 | 1012.1 |
| 20260507113033 | 63 | 152 | 4.3 | 0.0 | 0.00 | 0.00 | 0.01 | 56 | 1012.1 |
| 20260507111545 | 60 | 199 | 2.6 | 0.0 | 0.00 | 0.00 | 0.01 | 57 | 1012.1 |
| 20260507110027 | 62 | 179 | 3.5 | 0.0 | 0.00 | 0.00 | 0.01 | 60 | 1012.1 |
| 20260507104634 | 62 | 156 | 2.6 | 0.0 | 0.00 | 0.00 | 0.01 | 58 | 1012.1 |
| 20260507103028 | 60 | 246 | 4.3 | 0.0 | 0.00 | 0.00 | 0.01 | 55 | 1012.3 |
| 20260507101607 | 60 | 178 | 3.5 | 0.0 | 0.00 | 0.00 | 0.01 | 64 | 1012.3 |
| 20260507100022 | 57 | 188 | 3.5 | 0.0 | 0.00 | 0.00 | 0.01 | 66 | 1012.3 |
| 20260507094622 | 57 | 195 | 3.5 | 0.0 | 0.00 | 0.00 | 0.01 | 68 | 1012.2 |
| 20260507093132 | 56 | 166 | 2.6 | 0.0 | 0.00 | 0.00 | 0.01 | 70 | 1012.2 |
| 20260507091622 | 57 | 143 | 3.5 | 0.0 | 0.00 | 0.00 | 0.01 | 70 | 1012.3 |
| 20260507090019 | 54 | 177 | 3.5 | 0.0 | 0.00 | 0.00 | 0.01 | 76 | 1012.3 |
| 20260507084541 | 53 | 165 | 2.6 | 0.0 | 0.00 | 0.00 | 0.01 | 78 | 1012.2 |
| 20260507083141 | 53 | 170 | 3.5 | 0.0 | 0.00 | 0.00 | 0.01 | 73 | 1012.5 |
| 20260507081516 | 53 | 153 | 4.3 | 0.0 | 0.00 | 0.00 | 0.01 | 77 | 1012.5 |
| 20260507080051 | 52 | 163 | 4.3 | 0.0 | 0.00 | 0.00 | 0.01 | 74 | 1012.5 |
| 20260507074524 | 53 | 133 | 2.6 | 0.0 | 0.00 | 0.00 | 0.01 | 81 | 1012.6 |
| 20260507073032 | 51 | 165 | 4.3 | 0.0 | 0.00 | 0.00 | 0.01 | 82 | 1012.6 |
| 20260507071539 | 50 | 158 | 4.3 | 0.0 | 0.00 | 0.00 | 0.01 | 87 | 1012.5 |
| 20260507070141 | 49 | 147 | 2.6 | 0.0 | 0.00 | 0.00 | 0.01 | 91 | 1012.2 |
| 20260507064603 | 48 | 98 | 1.7 | 0.0 | 0.00 | 0.00 | 0.01 | 95 | 1012.0 |
| 20260507063135 | 46 | 69 | 0.9 | 0.0 | 0.00 | 0.00 | 0.01 | 95 | 1011.6 |
| 20260507061540 | 43 | 33 | 0.0 | 0.0 | 0.00 | 0.00 | 0.01 | 95 | 1011.5 |
| 20260507060038 | 42 | 34 | 0.9 | 0.0 | 0.00 | 0.00 | 0.01 | 94 | 1011.5 |
| 20260507054646 | 41 | 4 | 0.9 | 0.0 | 0.00 | 0.00 | 0.01 | 94 | 1011.4 |
| 20260507053142 | 41 | 332 | 0.9 | 0.0 | 0.00 | 0.00 | 0.01 | 94 | 1011.3 |
| 20260507051628 | 40 | 331 | 0.0 | 0.0 | 0.00 | 0.00 | 0.01 | 94 | 1011.2 |
| 20260507050026 | 40 | 331 | 0.0 | 0.0 | 0.00 | 0.00 | 0.01 | 93 | 1011.1 |
| 20260507044603 | 40 | 331 | 0.9 | 0.0 | 0.00 | 0.00 | 0.01 | 93 | 1011.0 |